Regional Weather Roundup
Issued by NWS Midland/Odessa, TX

Skip options and go directly to product.
Home | Oldest Version | Previous Version | Current Version | All | Text Only | Save Text | Print | Product List | Glossary On

Skip product version selection by date and time.   
267
ASUS44 KMAF 031310
RWRMAF
MIDLAND AREA WEATHER ROUNDUP
NATIONAL WEATHER SERVICE MIDLAND TX
800 AM CDT MON AUG 03 2015

...IN SOUTHWEST TEXAS AND SOUTHEAST NEW MEXICO...

CITY           SKY/WX    TMP DP  RH WIND       PRES   REMARKS
ALPINE         CLEAR     67  58  72 SW3       30.15R
ANDREWS        FAIR      72  65  80 SE9       30.02S
ARTESIA        MOCLDY    75  64  69 N5        30.03R
BIG SPRING     PTSUNNY   73  64  73 SW3       30.02R
CARLSBAD       CLOUDY    77  64  64 NW8       30.00R
DRYDEN           N/A     77  59  53 NW7       29.94R
FORT STOCKTON  CLOUDY    76  56  49 S10       29.98S
GUAD PASS      MOCLDY    69  58  67 SW7       30.16R
HOBBS          MOCLDY    72  64  78 VRB7      30.03S
MARFA          CLEAR     63  57  82 N6        30.14R
MIDLAND AIRPK  CLOUDY    80  58  47 SW5       30.03R
MIDLAND INTL   LGT RAIN  78  59  51 S6        30.02R
ODESSA         LGT RAIN  75  62  64 SE6       30.03R
PECOS          CLEAR     72  61  69 CALM      29.95R
PRESIDIO       FAIR      80  56  44 N12       29.97R
SEMINOLE       MOCLDY    72  61  70 CALM      30.03S
SNYDER         CLOUDY    74  63  68 SE6       29.99F
WINK           PTCLDY    76  61  59 SE8       29.94S
$$
...OTHER STATIONS IN TEXAS...

CITY           SKY/WX    TMP DP  RH WIND       PRES   REMARKS
ABILENE        CLOUDY    78  61  55 CALM      29.96R
AMARILLO       CLOUDY    68  66  93 SE10      30.05R
AUSTIN         MOSUNNY   75  70  84 CALM      29.92R
BROWNSVILLE    SUNNY     80  77  90 SE8       29.88R
CORPUS CHRISTI MOSUNNY   79  75  87 CALM      29.89R
DALLAS FTW     PTSUNNY   81  63  54 SE3       29.92R
DEL RIO        SUNNY     77  67  71 E9        29.91R
EL PASO        MOCLDY    73  63  70 CALM      30.06R
HOUSTON INT    MOSUNNY   79  73  82 CALM      29.91S
LUBBOCK        CLOUDY    72  65  78 SE6       30.01R
SAN ANGELO     MOSUNNY   77  61  57 S8        29.95R
SAN ANTONIO    MOSUNNY   79  71  76 W3        29.93S
WACO           SUNNY     79  67  66 SE6       29.92R
WICHITA FALLS  NOT AVBL
$$
...OTHER LOCATIONS IN NEW MEXICO...

CITY           SKY/WX    TMP DP  RH WIND       PRES   REMARKS
ALAMAGORDO     MOCLDY    68  59  73 SE6       30.07R
ALBUQUERQUE    PTCLDY    65  59  81 S3        30.17R
CANNON AFB     PTCLDY    67  65  93 CALM      30.07S
CLOVIS         MOSUNNY   66  63  88 W7        30.08S
HOLLOMAN AFB   CLOUDY    70  61  74 NW2       30.04R
ROSWELL        MOCLDY    75  64  68 NE8       30.01S
RUIDOSO          N/A    N/A N/A N/A MISG        N/A
SANTA FE       CLEAR     59  56  89 N8        30.21R
TRUTH OR CONSE MOCLDY    68  59  73 NW6       30.11R
TUCUMCARI      PTCLDY    69  66  90 CALM      30.03F
$$

USA.gov is the U.S. government's official web portal to all federal, state and local government web resources and services.